Regional Weather Roundup
Issued by NWS Cleveland, OH

Home | Current Version | Previous Version | Graphics & Text | Print | Product List | Glossary On
Versions: 1 2 3 4 5 6 7 8 9 10 11 12 13 14 15 16 17 18 19 20 21 22 23 24 25 26 27 28 29 30 31 32 33 34 35 36 37 38 39 40 41 42 43 44 45 46 47 48 49 50
000
ASUS41 KCLE 250210
RWRCLE
OHIO REGIONAL WEATHER ROUNDUP
NATIONAL WEATHER SERVICE WILMINGTON, OH
1000 PM EDT SUN MAY 24 2015

NOTE: "FAIR" INDICATES FEW OR NO CLOUDS BELOW 12,000 FEET WITH NO
SIGNIFICANT WEATHER AND/OR OBSTRUCTIONS TO VISIBILITY.

OHZ001>008-015>018-024>027-034-035-043-044-250300-
   NORTHWEST OHIO

CITY           SKY/WX    TMP DP  RH WIND       PRES   REMARKS
DEFIANCE       PTCLDY    75  52  44 S7        30.07S
FINDLAY        CLEAR     69  50  50 S7        30.10R
TOLEDO EXPRESS PTCLDY    69  53  56 S3        30.09R
TOLEDO EXEC    PTCLDY    71  50  47 SE5       30.09R
LIMA           PTCLDY    71  51  49 S7        30.11R
$$

OHZ009>014-019>023-028>033-038-089-250300-
   NORTHEAST OHIO

CITY           SKY/WX    TMP DP  RH WIND       PRES   REMARKS
CLE-HOPKINS    MOCLDY    71  51  49 SE8       30.16S
CLE-LAKEFRONT  CLOUDY    75  44  33 SE7       30.13S
CUY CO. ARPT   MOCLDY    73  46  38 S12       30.16F
LORAIN-ELYRIA  MOCLDY    72  52  49 S8        30.14R
ASHTABULA      CLOUDY    69  49  48 SE6       30.18S
AKRON-CANTON   PTCLDY    70  49  47 S8        30.18S
WOOSTER        PTCLDY    67  51  56 SE6       30.17S
MANSFIELD      PTCLDY    70  53  54 S8        30.16R
YOUNGSTOWN     CLOUDY    65  51  60 SE6       30.19S
$$

OHZ042-051>053-060>062-070>072-077>081-250300-
  SOUTHWEST OHIO

CITY           SKY/WX    TMP DP  RH WIND       PRES   REMARKS
CINC-COVINGTON PTCLDY    70  53  54 S8        30.12F
CINC-LUNKEN    CLEAR     68  55  63 SW3       30.12S
HAMILTON       CLEAR     75  51  43 CALM      30.12S
DAYTON         PTCLDY    76  50  40 S8        30.13S
WRIGHT-PAT AFB PTCLDY    74  50  43 SE6       30.13R
DAYTON GENERAL PTCLDY    70  51  51 S5        30.13R
WILMINGTON     PTCLDY    71  50  47 S5        30.15R
$$

OHZ036-037-039>041-045>050-054>059-063>069-073>076-082>088-250300-
  CENTRAL AND SOUTHEAST OHIO

CITY           SKY/WX    TMP DP  RH WIND       PRES   REMARKS
COLUMBUS       PTCLDY    75  53  46 S6        30.15R
OSU AIRPORT    PTCLDY    75  51  43 S9        30.15R
BOLTON FIELD   NOT AVBL
RICKENBACK AFB CLEAR     71  53  54 SE6       30.15R
NEWARK         CLEAR     70  53  54 CALM      30.16R
MARION         CLEAR     71  50  47 S8        30.14R
LANCASTER      CLEAR     67  55  65 S3        30.17R
ZANESVILLE     CLEAR     71  51  49 SE3       30.18R
NEW PHILLY     CLEAR     67  56  67 SE5       30.19R
$$



USA.gov is the U.S. government's official web portal to all federal, state and local government web resources and services.